STARLINK-1168, 45072

Orbit data source: Space-Track

STARLINK-1168, 45072 is a payload satellite owned by SpaceX/Seattle (US) in LEO that was launched on Wed, 29 Jan 2020 UTC via an FALCON 9 launch vehicle from the Air Force Eastern Test Range (AFETR). Payload-class satellites include a variety of spacecraft equipped with specific instruments for various scientific and technological missions. These include communications satellites like Starlink; space stations such as the ISS; scientific satellites like the Hubble; Earth observation satellites from companies like Planet Labs, Umbra, and HawkEye 360; GPS; miniature CubeSats for education and research; and military/defense satellites.

Loading next visibility...
Identifier
45072, 2020-006AE
Orbit
LEO
Country
Flag of USUS
Related business
Manufacturer
SpaceX/Seattle
Mission
Partially operational Commercial Communications
Bus & Motor
STARLINK, Unknown motor
Mass
260 kg wet, ~248 kg dry
Launch date (UTC)
2020-01-29 (7 years ago)
Launch vehicle
FALCON 9
Launch site
Air Force Eastern Test Range (AFETR)
Object type
Payload
Rocket body
Debris
Shape & HBR
Box + 1 Pan, 10.1 m
Radar Cross Section
13.562 m², Large (>1 m²)

Expand to show TLE details & history
Last TLE update: 9 hours ago

TLE from 9 hours ago
0 STARLINK-1168
1 45072U 20006AE  26255.87395154  .00044291  00000-0  97467-3 0  9994
2 45072  53.1519 101.0881 0001031 133.3266 226.7826 15.43556376365633
Epoch: 2026-09-12T20:58Z
TLE epoch observation values (Epoch: 2026-09-12T20:58:29.413Z)
Latitude
-0.00004°
Longitude
154.58882°
Altitude
437.008 km
Speed
7.651 km/s
True Right ascension
06h 44m 21s
True Declination
0° 00' 00"
Sunlit
Object was in daylight at epoch
Visualization orbit readout
Latitude
Unknown
Longitude
Unknown
Altitude
Unknown
Speed
Unknown
Apparent Right ascension
Unknown
Apparent Declination
Unknown
Sunlit
N/A
Visualization observer readout
Local Sidereal Time
22:04:48
Azimuth
Unknown
Elevation
Unknown
Doppler factor
Unknown
Orbital elements
Apogee altitude
436.585 km
Perigee altitude
435.18 km
Semi-major axis
6,814.019 km
Eccentricity
0.0001
Inclination
53.1519°
RAAN
101.0881°
Arg. of periapsis
133.3266°
True anomaly
226.77399°
Mean anomaly
226.7826°
Eccentric anomaly
226.7783°
Mean motion
3.85867 °/min
Orbital period
93.3 mins
BSTAR
0.00097467
Loading maneuver chart data...
Computing Atmospheric mass density...

Documentation

Showing up to 5 results
|